Weather in Settat

Morocco     33°00′18″N   7°37′23″W
temp.,
°C
wind,
m/s
gust,
m/s
humid.,
%
clouds,
%
prec.,
mm/h
press.,
hPa
HPBL,
m
7 may, fri
fri700:00+14nne479411 0.0 1018171
03:00+14nne36884 0.0 1017120
06:00+13ne239326 0.0 101870
09:00+22nne335334 0.0 1018409
12:00+28n323594 0.0 10161283
15:00+30n55265 0.0 10142068
18:00+25nne66430 0.0 1015523
21:00+18nne36640 0.0 1017143
8 may, sat
sat800:00+18ne34640 0.0 101558
03:00+17ne22656 0.0 101419
06:00+18nne22615 0.0 101318
09:00+25n22380 0.0 1013382
12:00+32nw562331 0.0 10111851
15:00+28nnw873625 0.0 1010912
18:00+21nnw555556 0.9 1012643
21:00+17wnw11720 2.3 101547
9 may, sun
sun900:00+15w227982 2.3 101569
03:00+13w24942 0.0 1014171
06:00+12sw239725 0.0 1015119
09:00+18wsw56510 0.0 1015725
12:00+23w562789 0.0 10141444
15:00+24wnw6631100 0.0 10121891
18:00+20wnw766275 0.0 10131094
21:00+16nw458974 0.2 1016445
10 may, mon
mon1000:00+15nnw228372 0.3 1016371
03:00+13nnw239570 0.1 101569
06:00+13nw129626 0.1 101683
09:00+17wnw44641 0.0 1017851
12:00+22w55380 0.0 10161853
15:00+23wnw76350 0.0 10151831
18:00+18nw76524 0.0 10181113
21:00+13n47730 0.0 1021350
11 may, tue
tue1100:00+12nne36800 0.0 1021201
03:00+13nne567499 0.0 1021752
06:00+13nne467133 0.0 1022735
09:00+16nne66500 0.0 1022986
12:00+21ne66330 0.0 10211388
15:00+24nne87290 0.0 10191551
18:00+19nne99490 0.0 1020940
21:00+13nne712750 0.0 1023512